QTR594 YPAD-YSSY

Flight info

Callsign QTR594
Flight time 1h 38m
Altitude 38000
Route DCT AD H247 CULIN Y59 TESAT DCT
Aircraft A330/M-VGDW/C

Departure

Time 2026-05-07 08:05
Airport Adelaide International Airport (YPAD)

Arrival

Time 2026-05-07 09:44
Airport Sydney Kingsford Smith International Airport (YSSY)
Time Latitude Longitude Altitude Speed Heading
2026-05-07 07:46 -34.93808 138.54033 26 ft 0 kts 318°
2026-05-07 07:58 -34.93818 138.54044 32 ft 3 kts 318°
2026-05-07 07:58 -34.93833 138.54059 31 ft 3 kts 318°
2026-05-07 07:58 -34.93847 138.54075 30 ft 3 kts 318°
2026-05-07 07:59 -34.93862 138.54092 30 ft 3 kts 328°
2026-05-07 07:59 -34.93881 138.54099 26 ft 3 kts 22°
2026-05-07 07:59 -34.93892 138.54092 29 ft 0 kts 56°
2026-05-07 08:02 -34.93888 138.54103 28 ft 3 kts 65°
2026-05-07 08:03 -34.93890 138.54124 26 ft 2 kts 103°
2026-05-07 08:03 -34.93905 138.54146 29 ft 5 kts 132°
2026-05-07 08:03 -34.93940 138.54185 26 ft 7 kts 135°
2026-05-07 08:03 -34.93979 138.54226 28 ft 0 kts 140°
2026-05-07 08:04 -34.93996 138.54244 30 ft 7 kts 140°
2026-05-07 08:04 -34.94064 138.54285 28 ft 14 kts 182°
2026-05-07 08:04 -34.94153 138.54203 26 ft 21 kts 218°
2026-05-07 08:05 -34.94328 138.53942 27 ft 74 kts 230°
2026-05-07 08:05 -34.94819 138.53226 30 ft 145 kts 229°
2026-05-07 08:05 -34.95537 138.52143 429 ft 182 kts 230°
2026-05-07 08:05 -34.96403 138.50829 1049 ft 215 kts 231°
2026-05-07 08:06 -34.97397 138.49310 1823 ft 242 kts 230°
2026-05-07 08:06 -34.98504 138.47619 2621 ft 270 kts 230°
2026-05-07 08:06 -34.99752 138.45726 3411 ft 302 kts 230°
2026-05-07 08:06 -35.01099 138.43688 4476 ft 301 kts 230°
2026-05-07 08:07 -35.02300 138.41858 5510 ft 256 kts 230°
2026-05-07 08:07 -35.03415 138.40151 6455 ft 258 kts 228°
2026-05-07 08:07 -35.04542 138.38425 7318 ft 262 kts 227°
2026-05-07 08:07 -35.05829 138.36910 8181 ft 260 kts 208°
2026-05-07 08:08 -35.07531 138.36265 9071 ft 259 kts 182°
2026-05-07 08:08 -35.09294 138.36694 9996 ft 263 kts 156°
2026-05-07 08:08 -35.10718 138.38119 10847 ft 272 kts 130°
2026-05-07 08:08 -35.11511 138.40250 11697 ft 283 kts 106°
2026-05-07 08:09 -35.11548 138.42683 12564 ft 290 kts 89°
2026-05-07 08:09 -35.11211 138.45121 13458 ft 292 kts 81°
2026-05-07 08:09 -35.10756 138.47525 14361 ft 286 kts 88°
2026-05-07 08:09 -35.10586 138.49926 15180 ft 282 kts 90°
2026-05-07 08:10 -35.10449 138.52335 15799 ft 288 kts 90°
2026-05-07 08:10 -35.10315 138.54784 16295 ft 297 kts 90°
2026-05-07 08:10 -35.10168 138.57337 16810 ft 306 kts 90°
2026-05-07 08:10 -35.10010 138.59972 17326 ft 315 kts 89°
2026-05-07 08:11 -35.09843 138.62675 17854 ft 323 kts 89°
2026-05-07 08:11 -35.09669 138.65449 18395 ft 332 kts 89°
2026-05-07 08:11 -35.09489 138.68288 18896 ft 339 kts 89°
2026-05-07 08:11 -35.09304 138.71192 19376 ft 346 kts 89°
2026-05-07 08:12 -35.09114 138.74154 19852 ft 352 kts 88°
2026-05-07 08:12 -35.08921 138.77154 20336 ft 358 kts 88°
2026-05-07 08:12 -35.08790 138.79173 20672 ft 361 kts 88°
2026-05-07 08:12 -35.08523 138.83300 21323 ft 368 kts 88°
2026-05-07 08:13 -35.08320 138.86432 21828 ft 372 kts 88°
2026-05-07 08:13 -35.08116 138.89560 22334 ft 375 kts 88°
2026-05-07 08:13 -35.07975 138.91720 22697 ft 378 kts 88°
2026-05-07 08:13 -35.07695 138.95977 23399 ft 381 kts 88°
2026-05-07 08:14 -35.07553 138.98119 23761 ft 383 kts 88°
2026-05-07 08:14 -35.07338 139.01369 24256 ft 385 kts 88°
2026-05-07 08:14 -35.07120 139.04628 24715 ft 386 kts 88°
2026-05-07 08:14 -35.06901 139.07906 25189 ft 387 kts 88°
2026-05-07 08:15 -35.06681 139.11188 25674 ft 388 kts 88°
2026-05-07 08:15 -35.06459 139.14474 26164 ft 388 kts 88°
2026-05-07 08:15 -35.06236 139.17766 26655 ft 388 kts 88°
2026-05-07 08:15 -35.06015 139.21018 27151 ft 388 kts 88°
2026-05-07 08:16 -35.05790 139.24300 27662 ft 387 kts 87°
2026-05-07 08:16 -35.05566 139.27575 28176 ft 385 kts 87°
2026-05-07 08:16 -35.05342 139.30831 28707 ft 384 kts 87°
2026-05-07 08:16 -35.05118 139.34069 29239 ft 381 kts 87°
2026-05-07 08:17 -35.04895 139.37285 29790 ft 379 kts 87°
2026-05-07 08:17 -35.04676 139.40434 30346 ft 376 kts 87°
2026-05-07 08:17 -35.04454 139.43601 30854 ft 372 kts 87°
2026-05-07 08:17 -35.04235 139.46731 31331 ft 367 kts 87°
2026-05-07 08:18 -35.04017 139.49820 31826 ft 363 kts 87°
2026-05-07 08:18 -35.03802 139.52865 32330 ft 357 kts 87°
2026-05-07 08:18 -35.03589 139.55862 32840 ft 351 kts 87°
2026-05-07 08:18 -35.03379 139.58812 33349 ft 344 kts 87°
2026-05-07 08:19 -35.03176 139.61652 33875 ft 336 kts 87°
2026-05-07 08:19 -35.02975 139.64460 34402 ft 327 kts 87°
2026-05-07 08:19 -35.02779 139.67184 34862 ft 317 kts 86°
2026-05-07 08:19 -35.02588 139.69831 35221 ft 310 kts 86°
2026-05-07 08:20 -35.02399 139.72449 35432 ft 307 kts 86°
2026-05-07 08:20 -35.02212 139.75049 35572 ft 308 kts 86°
2026-05-07 08:20 -35.02027 139.77636 35591 ft 312 kts 86°
2026-05-07 08:21 -35.01676 139.82934 35856 ft 311 kts 87°
2026-05-07 08:21 -35.01422 139.87224 35887 ft 318 kts 87°
2026-05-07 08:22 -35.01062 139.92693 35910 ft 328 kts 86°
2026-05-07 08:22 -35.00656 139.98324 35920 ft 339 kts 86°
2026-05-07 08:23 -35.00210 140.04125 36069 ft 346 kts 86°
2026-05-07 08:23 -34.99757 140.10008 36254 ft 350 kts 86°
2026-05-07 08:23 -34.99532 140.12943 36377 ft 352 kts 86°
2026-05-07 08:24 -34.99302 140.15932 36497 ft 354 kts 85°
2026-05-07 08:24 -34.99073 140.18932 36625 ft 356 kts 85°
2026-05-07 08:24 -34.98842 140.21942 36765 ft 357 kts 86°
2026-05-07 08:24 -34.98612 140.24959 36889 ft 358 kts 86°
2026-05-07 08:25 -34.98381 140.27991 37022 ft 359 kts 85°
2026-05-07 08:25 -34.98149 140.31034 37154 ft 360 kts 85°
2026-05-07 08:25 -34.97919 140.34054 37271 ft 361 kts 85°
2026-05-07 08:25 -34.97691 140.37113 37404 ft 362 kts 88°
2026-05-07 08:26 -34.97642 140.43260 37680 ft 362 kts 91°
2026-05-07 08:26 -34.97654 140.46348 37810 ft 363 kts 92°
2026-05-07 08:26 -34.97678 140.49440 37555 ft 376 kts 92°
2026-05-07 08:27 -34.97711 140.52671 37422 ft 384 kts 92°
2026-05-07 08:27 -34.97744 140.55957 37421 ft 390 kts 92°
2026-05-07 08:27 -34.97808 140.62654 37416 ft 401 kts 92°
2026-05-07 08:28 -34.97865 140.69552 37413 ft 412 kts 92°
2026-05-07 08:28 -34.97918 140.76643 37411 ft 423 kts 92°
2026-05-07 08:29 -34.97968 140.83921 37409 ft 434 kts 91°
2026-05-07 08:29 -34.98014 140.91343 37413 ft 446 kts 92°
2026-05-07 08:30 -34.98057 140.99012 37411 ft 457 kts 92°
2026-05-07 08:30 -34.98096 141.06816 37405 ft 467 kts 91°
2026-05-07 08:31 -34.98131 141.14851 37399 ft 478 kts 91°
2026-05-07 08:31 -34.98161 141.23060 37395 ft 488 kts 91°
2026-05-07 08:32 -34.98186 141.31394 37387 ft 486 kts 91°
2026-05-07 08:32 -34.98194 141.35456 37396 ft 474 kts 91°
2026-05-07 08:32 -34.98201 141.39411 37389 ft 472 kts 91°
2026-05-07 08:33 -34.98214 141.47434 37394 ft 474 kts 91°
2026-05-07 08:33 -34.98213 141.55488 37397 ft 474 kts 91°
2026-05-07 08:34 -34.98202 141.63502 37403 ft 475 kts 91°
2026-05-07 08:34 -34.98185 141.71578 37387 ft 475 kts 91°
2026-05-07 08:35 -34.98163 141.79637 37387 ft 475 kts 91°
2026-05-07 08:35 -34.98137 141.87701 37381 ft 475 kts 91°
2026-05-07 08:36 -34.98106 141.95711 37378 ft 475 kts 91°
2026-05-07 08:36 -34.98069 142.03792 37385 ft 475 kts 91°
2026-05-07 08:37 -34.98026 142.11871 37377 ft 475 kts 91°
2026-05-07 08:37 -34.97979 142.19893 37379 ft 476 kts 91°
2026-05-07 08:38 -34.97926 142.27973 37386 ft 476 kts 91°
2026-05-07 08:38 -34.97868 142.36052 37382 ft 476 kts 91°
2026-05-07 08:39 -34.97804 142.44131 37374 ft 476 kts 91°
2026-05-07 08:39 -34.97736 142.52153 37370 ft 476 kts 91°
2026-05-07 08:40 -34.97661 142.60228 37371 ft 476 kts 91°
2026-05-07 08:40 -34.97582 142.68304 37367 ft 476 kts 91°
2026-05-07 08:41 -34.97497 142.76381 37366 ft 477 kts 91°
2026-05-07 08:41 -34.97406 142.84473 37368 ft 477 kts 91°
2026-05-07 08:42 -34.97311 142.92513 37368 ft 477 kts 91°
2026-05-07 08:42 -34.97209 143.00614 37360 ft 477 kts 91°
2026-05-07 08:43 -34.97103 143.08712 37360 ft 478 kts 91°
2026-05-07 08:43 -34.96990 143.16818 37357 ft 478 kts 91°
2026-05-07 08:44 -34.96876 143.24869 37357 ft 478 kts 91°
2026-05-07 08:44 -34.96777 143.32993 37354 ft 479 kts 91°
2026-05-07 08:45 -34.96681 143.41107 37351 ft 479 kts 91°
2026-05-07 08:45 -34.96577 143.49227 37353 ft 479 kts 91°
2026-05-07 08:46 -34.96467 143.57335 37352 ft 478 kts 91°
2026-05-07 08:46 -34.96350 143.65461 37347 ft 478 kts 91°
2026-05-07 08:47 -34.96228 143.73531 37346 ft 478 kts 91°
2026-05-07 08:47 -34.96101 143.81643 37334 ft 478 kts 91°
2026-05-07 08:48 -34.95968 143.89761 37347 ft 479 kts 91°
2026-05-07 08:48 -34.95830 143.97889 37341 ft 479 kts 91°
2026-05-07 08:49 -34.95687 144.05974 37341 ft 479 kts 91°
2026-05-07 08:49 -34.95538 144.14101 37341 ft 479 kts 91°
2026-05-07 08:50 -34.95383 144.22228 37338 ft 479 kts 90°
2026-05-07 08:50 -34.95223 144.30353 37341 ft 479 kts 91°
2026-05-07 08:51 -34.95059 144.38425 37330 ft 479 kts 91°
2026-05-07 08:51 -34.94888 144.46559 37328 ft 479 kts 91°
2026-05-07 08:52 -34.94711 144.54693 37333 ft 479 kts 91°
2026-05-07 08:52 -34.94530 144.62814 37327 ft 479 kts 91°
2026-05-07 08:53 -34.94343 144.70909 37329 ft 480 kts 91°
2026-05-07 08:53 -34.94151 144.79046 37325 ft 480 kts 91°
2026-05-07 08:54 -34.93953 144.87180 37318 ft 481 kts 91°
2026-05-07 08:54 -34.93748 144.95355 37293 ft 481 kts 91°
2026-05-07 08:55 -34.93539 145.03466 37322 ft 483 kts 91°
2026-05-07 08:55 -34.93322 145.11653 37315 ft 483 kts 91°
2026-05-07 08:56 -34.93093 145.19845 37312 ft 483 kts 91°
2026-05-07 08:56 -34.92857 145.28024 37329 ft 483 kts 91°
2026-05-07 08:57 -34.92618 145.36179 37311 ft 484 kts 91°
2026-05-07 08:57 -34.92372 145.44382 37306 ft 484 kts 91°
2026-05-07 08:58 -34.92121 145.52579 37330 ft 484 kts 91°
2026-05-07 08:58 -34.91863 145.60792 37300 ft 485 kts 91°
2026-05-07 08:59 -34.91600 145.69021 37299 ft 486 kts 91°
2026-05-07 08:59 -34.91333 145.77204 37304 ft 486 kts 90°
2026-05-07 09:00 -34.91057 145.85445 37298 ft 486 kts 91°
2026-05-07 09:00 -34.90777 145.93685 37298 ft 487 kts 91°
2026-05-07 09:01 -34.90493 146.01883 37292 ft 486 kts 91°
2026-05-07 09:01 -34.90202 146.10128 37289 ft 486 kts 91°
2026-05-07 09:02 -34.89905 146.18366 37286 ft 487 kts 90°
2026-05-07 09:02 -34.89653 146.25222 37290 ft 488 kts 90°
2026-05-07 09:03 -34.89345 146.33491 37297 ft 488 kts 90°
2026-05-07 09:03 -34.88979 146.43096 37290 ft 488 kts 90°
2026-05-07 09:04 -34.88713 146.49974 37286 ft 488 kts 90°
2026-05-07 09:04 -34.88387 146.58253 37281 ft 488 kts 90°
2026-05-07 09:05 -34.88057 146.66517 37281 ft 488 kts 90°
2026-05-07 09:05 -34.87722 146.74738 37280 ft 488 kts 90°
2026-05-07 09:06 -34.87380 146.83011 37279 ft 490 kts 90°
2026-05-07 09:06 -34.87031 146.91320 37278 ft 490 kts 90°
2026-05-07 09:07 -34.86676 146.99622 37276 ft 490 kts 90°
2026-05-07 09:07 -34.86318 147.07868 37273 ft 490 kts 90°
2026-05-07 09:08 -34.85952 147.16165 37279 ft 491 kts 90°
2026-05-07 09:08 -34.85580 147.24467 37271 ft 491 kts 90°
2026-05-07 09:09 -34.85202 147.32788 37263 ft 491 kts 90°
2026-05-07 09:09 -34.84820 147.41055 37266 ft 492 kts 90°
2026-05-07 09:10 -34.84432 147.49366 37264 ft 494 kts 90°
2026-05-07 09:10 -34.84034 147.57718 37261 ft 494 kts 90°
2026-05-07 09:11 -34.83634 147.66004 37298 ft 494 kts 90°
2026-05-07 09:11 -34.83226 147.74361 37259 ft 494 kts 90°
2026-05-07 09:12 -34.82815 147.82660 37254 ft 495 kts 90°
2026-05-07 09:12 -34.82394 147.91025 37257 ft 495 kts 90°
2026-05-07 09:13 -34.81968 147.99401 37252 ft 496 kts 90°
2026-05-07 09:13 -34.81534 148.07819 37248 ft 499 kts 90°
2026-05-07 09:14 -34.81095 148.16206 37253 ft 500 kts 90°
2026-05-07 09:14 -34.80646 148.24667 37256 ft 502 kts 90°
2026-05-07 09:15 -34.80190 148.33193 37244 ft 506 kts 90°
2026-05-07 09:15 -34.79723 148.41761 37242 ft 507 kts 90°
2026-05-07 09:16 -34.79251 148.50309 37240 ft 507 kts 90°
2026-05-07 09:16 -34.79012 148.54597 37044 ft 509 kts 90°
2026-05-07 09:16 -34.78773 148.58858 36817 ft 509 kts 90°
2026-05-07 09:17 -34.78529 148.63167 36586 ft 509 kts 90°
2026-05-07 09:17 -34.78284 148.67462 36330 ft 508 kts 90°
2026-05-07 09:17 -34.78038 148.71747 36100 ft 506 kts 91°
2026-05-07 09:17 -34.77795 148.75972 35908 ft 505 kts 91°
2026-05-07 09:18 -34.77547 148.80234 35681 ft 503 kts 91°
2026-05-07 09:18 -34.77299 148.84481 35461 ft 500 kts 92°
2026-05-07 09:18 -34.77052 148.88699 35147 ft 499 kts 92°
2026-05-07 09:18 -34.76805 148.92905 34789 ft 497 kts 92°
2026-05-07 09:19 -34.76560 148.97040 34447 ft 495 kts 93°
2026-05-07 09:19 -34.76312 149.01205 34072 ft 492 kts 94°
2026-05-07 09:19 -34.76064 149.05354 33697 ft 490 kts 94°
2026-05-07 09:19 -34.75816 149.09486 33300 ft 490 kts 94°
2026-05-07 09:20 -34.75567 149.13632 32900 ft 491 kts 94°
2026-05-07 09:20 -34.75317 149.17782 32510 ft 493 kts 94°
2026-05-07 09:20 -34.75065 149.21940 32132 ft 494 kts 94°
2026-05-07 09:20 -34.74810 149.26115 31740 ft 495 kts 94°
2026-05-07 09:21 -34.74551 149.30301 31334 ft 497 kts 94°
2026-05-07 09:21 -34.74290 149.34500 30977 ft 498 kts 94°
2026-05-07 09:21 -34.73976 149.38706 30607 ft 505 kts 88°
2026-05-07 09:21 -34.72987 149.42817 30239 ft 520 kts 74°
2026-05-07 09:22 -34.71383 149.46840 29806 ft 525 kts 66°
2026-05-07 09:22 -34.69571 149.50648 29379 ft 525 kts 64°
2026-05-07 09:22 -34.67690 149.54433 28964 ft 522 kts 64°
2026-05-07 09:22 -34.65835 149.58217 28562 ft 519 kts 65°
2026-05-07 09:23 -34.64037 149.62008 28095 ft 516 kts 66°
2026-05-07 09:23 -34.62289 149.65815 27564 ft 512 kts 67°
2026-05-07 09:23 -34.60598 149.69599 27010 ft 509 kts 68°
2026-05-07 09:23 -34.58934 149.73379 26494 ft 505 kts 68°
2026-05-07 09:24 -34.57309 149.77094 26004 ft 502 kts 68°
2026-05-07 09:24 -34.55681 149.80820 25517 ft 499 kts 68°
2026-05-07 09:24 -34.54057 149.84529 25028 ft 496 kts 68°
2026-05-07 09:24 -34.52439 149.88213 24558 ft 493 kts 68°
2026-05-07 09:25 -34.50824 149.91878 24151 ft 491 kts 69°
2026-05-07 09:25 -34.49216 149.95514 23674 ft 488 kts 69°
2026-05-07 09:25 -34.47615 149.99132 23129 ft 484 kts 69°
2026-05-07 09:25 -34.46050 150.02665 22604 ft 479 kts 69°
2026-05-07 09:26 -34.44487 150.06187 22056 ft 467 kts 69°
2026-05-07 09:26 -34.42970 150.09578 21532 ft 448 kts 69°
2026-05-07 09:26 -34.41512 150.12833 21023 ft 432 kts 70°
2026-05-07 09:26 -34.40094 150.16011 20531 ft 426 kts 70°
2026-05-07 09:27 -34.38695 150.19168 20086 ft 422 kts 71°
2026-05-07 09:27 -34.37314 150.22289 19606 ft 419 kts 71°
2026-05-07 09:27 -34.34577 150.28453 18666 ft 412 kts 71°
2026-05-07 09:28 -34.33240 150.31455 18101 ft 408 kts 71°
2026-05-07 09:28 -34.31898 150.34479 17565 ft 405 kts 71°
2026-05-07 09:28 -34.30570 150.37469 17037 ft 400 kts 70°
2026-05-07 09:28 -34.29251 150.40417 16520 ft 396 kts 69°
2026-05-07 09:29 -34.27943 150.43325 16018 ft 392 kts 69°
2026-05-07 09:29 -34.26656 150.46206 15551 ft 387 kts 68°
2026-05-07 09:29 -34.25391 150.49043 15058 ft 378 kts 67°
2026-05-07 09:29 -34.24163 150.51803 14565 ft 369 kts 66°
2026-05-07 09:30 -34.22973 150.54485 14080 ft 363 kts 66°
2026-05-07 09:30 -34.21788 150.57160 13559 ft 358 kts 66°
2026-05-07 09:30 -34.20619 150.59795 13020 ft 354 kts 65°
2026-05-07 09:30 -34.19456 150.62412 12480 ft 351 kts 65°
2026-05-07 09:31 -34.18303 150.65003 11954 ft 347 kts 65°
2026-05-07 09:31 -34.17177 150.67523 11447 ft 334 kts 65°
2026-05-07 09:31 -34.16090 150.69951 10927 ft 323 kts 65°
2026-05-07 09:31 -34.15044 150.72291 10437 ft 318 kts 64°
2026-05-07 09:32 -34.13997 150.74635 9927 ft 315 kts 64°
2026-05-07 09:32 -34.12959 150.76959 9406 ft 314 kts 64°
2026-05-07 09:32 -34.11924 150.79276 8874 ft 313 kts 65°
2026-05-07 09:32 -34.10893 150.81583 8357 ft 311 kts 65°
2026-05-07 09:33 -34.09866 150.83876 7840 ft 309 kts 66°
2026-05-07 09:33 -34.08845 150.86152 7438 ft 308 kts 65°
2026-05-07 09:33 -34.07824 150.88425 7067 ft 309 kts 65°
2026-05-07 09:33 -34.06800 150.90706 6729 ft 306 kts 66°
2026-05-07 09:34 -34.05792 150.92948 6475 ft 302 kts 66°
2026-05-07 09:34 -34.04790 150.95178 6209 ft 302 kts 66°
2026-05-07 09:34 -34.03801 150.97384 5953 ft 302 kts 65°
2026-05-07 09:34 -34.02798 150.99615 5692 ft 302 kts 65°
2026-05-07 09:35 -34.01794 151.01847 5439 ft 302 kts 65°
2026-05-07 09:35 -34.00790 151.04078 5175 ft 303 kts 65°
2026-05-07 09:35 -33.99785 151.06312 4928 ft 302 kts 65°
2026-05-07 09:35 -33.98782 151.08536 4664 ft 302 kts 65°
2026-05-07 09:36 -33.97775 151.10761 4397 ft 302 kts 65°
2026-05-07 09:36 -33.96772 151.12978 4144 ft 302 kts 65°
2026-05-07 09:36 -33.95739 151.15144 3890 ft 304 kts 56°
2026-05-07 09:36 -33.94135 151.16763 3625 ft 300 kts 21°
2026-05-07 09:37 -33.92159 151.17161 3366 ft 280 kts 346°
2026-05-07 09:37 -33.90424 151.16383 3161 ft 258 kts 322°
2026-05-07 09:37 -33.88758 151.15643 3135 ft 262 kts 348°
2026-05-07 09:37 -33.86941 151.16084 3129 ft 277 kts 25°
2026-05-07 09:38 -33.85560 151.17698 3127 ft 280 kts 63°
2026-05-07 09:38 -33.85129 151.19904 3127 ft 267 kts 101°
2026-05-07 09:38 -33.85558 151.21976 3133 ft 254 kts 118°
2026-05-07 09:38 -33.86129 151.23905 3120 ft 235 kts 119°
2026-05-07 09:39 -33.86631 151.25703 3112 ft 218 kts 118°
2026-05-07 09:39 -33.87062 151.27390 3127 ft 206 kts 118°
2026-05-07 09:39 -33.87460 151.29034 3114 ft 203 kts 117°
2026-05-07 09:39 -33.87836 151.30670 3001 ft 199 kts 116°
2026-05-07 09:40 -33.88333 151.32110 2821 ft 175 kts 143°
2026-05-07 09:40 -33.89251 151.32784 2814 ft 144 kts 183°
2026-05-07 09:40 -33.90070 151.32416 2829 ft 126 kts 233°
2026-05-07 09:40 -33.90562 151.31534 2875 ft 128 kts 234°
2026-05-07 09:41 -33.90965 151.30568 2648 ft 130 kts 246°
2026-05-07 09:41 -33.91241 151.29556 2381 ft 123 kts 249°
2026-05-07 09:41 -33.91483 151.28610 2072 ft 115 kts 248°
2026-05-07 09:41 -33.91706 151.27692 1782 ft 114 kts 251°
2026-05-07 09:42 -33.91919 151.26781 1497 ft 115 kts 251°
2026-05-07 09:42 -33.92139 151.25857 1290 ft 115 kts 251°
2026-05-07 09:42 -33.92360 151.24931 1075 ft 118 kts 254°
2026-05-07 09:42 -33.92556 151.24054 932 ft 127 kts 254°
2026-05-07 09:43 -33.92811 151.22993 740 ft 137 kts 255°
2026-05-07 09:43 -33.93072 151.21892 546 ft 136 kts 256°
2026-05-07 09:43 -33.93317 151.20827 366 ft 128 kts 255°
2026-05-07 09:43 -33.93577 151.19763 210 ft 135 kts 256°
2026-05-07 09:44 -33.93830 151.18693 52 ft 126 kts 257°
2026-05-07 09:44 -33.94032 151.17814 27 ft 85 kts 253°
2026-05-07 09:44 -33.94141 151.17361 29 ft 29 kts 256°
2026-05-07 09:44 -33.94115 151.17259 30 ft 4 kts 334°
2026-05-07 09:45 -33.94099 151.17254 27 ft 0 kts 347°
2026-05-07 09:46 -33.94095 151.17253 30 ft 3 kts 347°
2026-05-07 09:46 -33.94063 151.17244 30 ft 7 kts 346°
2026-05-07 09:46 -33.94003 151.17227 27 ft 11 kts 348°
2026-05-07 09:46 -33.93911 151.17206 23 ft 15 kts 349°
2026-05-07 09:47 -33.93798 151.17179 21 ft 17 kts 345°
2026-05-07 09:47 -33.93692 151.17149 24 ft 14 kts 348°
2026-05-07 09:47 -33.93597 151.17125 29 ft 14 kts 347°
2026-05-07 09:47 -33.93497 151.17110 26 ft 15 kts 12°
2026-05-07 09:48 -33.93451 151.17146 20 ft 0 kts 60°
2026-05-07 09:49 -33.93444 151.17162 21 ft 4 kts 63°
2026-05-07 09:49 -33.93431 151.17211 20 ft 9 kts 75°
2026-05-07 09:49 -33.93413 151.17313 20 ft 15 kts 79°
2026-05-07 09:50 -33.93389 151.17453 27 ft 18 kts 78°
2026-05-07 09:50 -33.93355 151.17555 32 ft 7 kts 36°
2026-05-07 09:50 -33.93321 151.17567 33 ft 7 kts
2026-05-07 09:50 -33.93279 151.17592 34 ft 6 kts 50°
2026-05-07 09:51 -33.93267 151.17644 34 ft 6 kts 83°
2026-05-07 09:51 -33.93263 151.17686 34 ft 2 kts 84°
2026-05-07 09:51 -33.93263 151.17691 34 ft 0 kts 84°